Location: Bremen
(53.0830°N, 8.8000°E)
Time: 18:33:52
(UTC+01:00)

Envisat - Pass Details

Date: 10 November 2025
Orbit: 761 x 762 km, 98.4° (Epoch: 05 December)

Event Time Altitude Azimuth Distance (km) Brightness Sun altitude
Rises 03:14:12 0° 16° (NNE) 3,239 6.7 -39.2°
Reaches altitude 10° 03:16:32 10° 18° (NNE) 2,308 5.9 -38.9°
Enters shadow 03:17:10 14° 19° (NNE) 2,059 5.6 -38.8°
